timestamp,surface_pressure_avg,surface_temp_avg,battery_voltage,lat,long
2020-08-03 00:09:01+00:00,362.9912,12.8,13.13,47.84626,-54.09684
2020-08-03 00:19:01+00:00,361.6312,12.7,12.81,47.84626,-54.09684
2020-08-03 00:29:01+00:00,359.963,12.71,12.81,47.84626,-54.09684
2020-08-03 00:39:01+00:00,353.1063,12.89,12.81,47.84626,-54.09684
2020-08-03 00:49:01+00:00,348.088,12.9,12.81,47.84626,-54.09684
2020-08-03 00:59:01+00:00,347.4796,12.8,12.81,47.84626,-54.09684
2020-08-03 01:09:01+00:00,341.9113,12.82,12.81,47.84626,-54.09684
2020-08-03 01:19:01+00:00,331.99300000000005,13.11,12.73,47.84626,-54.09684
2020-08-03 01:29:01+00:00,324.8613,13.1,12.73,47.84626,-54.09684
2020-08-03 01:39:01+00:00,321.5413,13.0,12.73,47.84626,-54.09684
2020-08-03 01:49:01+00:00,311.3997,13.08,12.73,47.84626,-54.09684
2020-08-03 01:59:01+00:00,300.2114,13.83,12.73,47.84626,-54.09684
2020-08-03 02:09:01+00:00,291.8314,14.48,12.73,47.84626,-54.09684
2020-08-03 02:19:01+00:00,285.598,13.7,12.73,47.84626,-54.09684
2020-08-03 02:29:01+00:00,274.6747,13.54,12.73,47.84626,-54.09684
2020-08-03 02:39:01+00:00,265.6914,14.5,12.73,47.84626,-54.09684
2020-08-03 02:49:01+00:00,257.4764,15.0,12.73,47.84626,-54.09684
2020-08-03 02:59:01+00:00,250.2564,14.8,12.73,47.84626,-54.09684
2020-08-03 03:09:01+00:00,243.5348,14.6,12.73,47.84626,-54.09684
2020-08-03 03:19:01+00:00,239.0131,15.01,12.73,47.84626,-54.09684
2020-08-03 03:29:01+00:00,232.8014,15.3,12.73,47.84626,-54.09684
2020-08-03 03:39:01+00:00,224.6998,15.35,12.73,47.84626,-54.09684
2020-08-03 03:49:01+00:00,219.7464,15.44,12.73,47.84626,-54.09684
2020-08-03 03:59:01+00:00,215.0015,15.4,12.73,47.84626,-54.09684
2020-08-03 04:09:01+00:00,208.2764,15.3,12.73,47.84626,-54.09684
2020-08-03 04:19:01+00:00,201.8931,15.35,12.73,47.84626,-54.09684
2020-08-03 04:29:01+00:00,197.9915,15.49,12.73,47.84626,-54.09684
2020-08-03 04:39:01+00:00,196.6781,15.49,12.73,47.84626,-54.09684
2020-08-03 04:49:01+00:00,192.8398,15.5,12.73,47.84626,-54.09684
2020-08-03 04:59:01+00:00,190.9114,15.57,12.73,47.84626,-54.09684
2020-08-03 05:09:01+00:00,193.1531,15.57,12.73,47.84626,-54.09684
2020-08-03 05:19:01+00:00,193.4499,15.5,12.73,47.84626,-54.09684
2020-08-03 05:29:01+00:00,192.4331,15.4,12.73,47.84626,-54.09684
2020-08-03 05:39:01+00:00,193.7881,15.3,12.73,47.84626,-54.09684
2020-08-03 05:49:01+00:00,196.3398,15.1,12.73,47.84626,-54.09684
2020-08-03 05:59:01+00:00,196.2947,14.9,12.73,47.84626,-54.09684
2020-08-03 06:09:01+00:00,195.2047,14.89,12.73,47.84626,-54.09684
2020-08-03 06:19:01+00:00,196.6848,14.7,12.73,47.84626,-54.09684
2020-08-03 06:29:01+00:00,201.2531,14.98,12.73,47.84626,-54.09684
2020-08-03 06:39:01+00:00,205.8597,15.2,12.73,47.84626,-54.09684
2020-08-03 06:49:01+00:00,208.2715,15.1,12.73,47.84626,-54.09684
2020-08-03 06:59:01+00:00,210.7548,15.1,12.73,47.84626,-54.09684
2020-08-03 07:09:01+00:00,214.9664,15.0,12.73,47.84626,-54.09684
2020-08-03 07:19:01+00:00,216.3948,14.95,12.73,47.84626,-54.09684
2020-08-03 07:29:01+00:00,219.7348,14.9,12.73,47.84626,-54.09684
2020-08-03 07:39:01+00:00,224.7981,14.8,12.73,47.84626,-54.09684
2020-08-03 07:49:01+00:00,228.0465,14.7,12.73,47.84626,-54.09684
2020-08-03 07:59:01+00:00,229.7681,14.8,12.73,47.84626,-54.09684
2020-08-03 08:09:01+00:00,235.2414,14.8,12.73,47.84626,-54.09684
2020-08-03 08:19:01+00:00,241.5864,14.8,12.73,47.84626,-54.09684
2020-08-03 08:29:01+00:00,244.5481,14.9,12.73,47.84626,-54.09684
2020-08-03 08:39:01+00:00,248.4881,15.0,12.73,47.84626,-54.09684
2020-08-03 08:49:01+00:00,257.1331,15.0,12.73,47.84626,-54.09684
2020-08-03 08:59:01+00:00,263.638,15.01,12.73,47.84626,-54.09684
2020-08-03 09:09:01+00:00,267.1214,15.0,12.73,47.84626,-54.09684
2020-08-03 09:19:01+00:00,273.6431,14.8,12.65,47.84626,-54.09684
2020-08-03 09:29:01+00:00,284.0814,14.3,12.65,47.84626,-54.09684
2020-08-03 09:39:01+00:00,288.8014,14.3,12.65,47.84626,-54.09684
2020-08-03 09:49:01+00:00,294.1296,14.3,12.65,47.84626,-54.09684
2020-08-03 09:59:01+00:00,302.6979,13.95,12.65,47.84626,-54.09684
2020-08-03 10:09:01+00:00,312.0847,13.5,12.65,47.84626,-54.09684
2020-08-03 10:19:01+00:00,313.6013,13.44,12.73,47.84626,-54.09684
2020-08-03 10:29:01+00:00,314.7147,13.4,12.73,47.84626,-54.09684
2020-08-03 10:39:01+00:00,321.9797,13.3,12.73,47.84626,-54.09684
2020-08-03 10:49:01+00:00,327.7863,13.3,12.73,47.84626,-54.09684
2020-08-03 10:59:01+00:00,324.4579,13.35,12.73,47.84626,-54.09684
2020-08-03 11:09:01+00:00,322.9331,13.39,12.73,47.84626,-54.09684
2020-08-03 11:19:01+00:00,327.9113,13.4,12.97,47.84626,-54.09684
2020-08-03 11:29:01+00:00,329.3179,13.41,12.97,47.84626,-54.09684
2020-08-03 11:39:01+00:00,325.628,13.4,12.97,47.84626,-54.09684
2020-08-03 11:49:01+00:00,324.5096,13.4,12.97,47.84626,-54.09684
2020-08-03 11:59:01+00:00,328.6312,13.4,12.97,47.84626,-54.09684
2020-08-03 12:09:01+00:00,325.2679,13.4,12.97,47.84626,-54.09684
2020-08-03 12:19:01+00:00,319.128,13.41,13.29,47.84626,-54.09684
2020-08-03 12:29:01+00:00,320.0914,13.64,13.29,47.84626,-54.09684
2020-08-03 12:39:01+00:00,322.908,13.6,13.29,47.84626,-54.09684
2020-08-03 12:49:01+00:00,317.5897,13.5,13.29,47.84626,-54.09684
2020-08-03 12:59:01+00:00,312.2279,14.29,13.29,47.84626,-54.09684
2020-08-03 13:09:01+00:00,313.7997,14.29,13.29,47.84626,-54.09684
2020-08-03 13:19:01+00:00,311.7363,13.89,14.32,47.84626,-54.09684
2020-08-03 13:29:01+00:00,302.6713,14.11,14.32,47.84626,-54.09684
2020-08-03 13:39:01+00:00,296.8697,14.33,14.32,47.84626,-54.09684
2020-08-03 13:49:01+00:00,291.923,13.9,14.32,47.84626,-54.09684
2020-08-03 13:59:01+00:00,283.3297,13.9,14.32,47.84626,-54.09684
2020-08-03 14:09:01+00:00,273.2247,14.14,14.32,47.84626,-54.09684
2020-08-03 14:19:01+00:00,266.5464,14.29,14.24,47.84626,-54.09684
2020-08-03 14:29:01+00:00,259.0865,14.1,14.24,47.84626,-54.09684
2020-08-03 14:39:01+00:00,250.9814,14.15,14.24,47.84626,-54.09684
2020-08-03 14:49:01+00:00,244.3781,14.29,14.24,47.84626,-54.09684
2020-08-03 14:59:01+00:00,237.7931,14.3,14.24,47.84626,-54.09684
2020-08-03 15:09:01+00:00,227.8798,14.29,14.24,47.84626,-54.09684
2020-08-03 15:19:01+00:00,219.3414,14.38,14.32,47.84626,-54.09684
2020-08-03 15:29:01+00:00,214.9881,14.5,14.32,47.84626,-54.09684
2020-08-03 15:39:01+00:00,209.1198,14.5,14.32,47.84626,-54.09684
2020-08-03 15:49:01+00:00,200.9848,14.61,14.32,47.84626,-54.09684
2020-08-03 15:59:01+00:00,196.9882,14.99,14.32,47.84626,-54.09684
2020-08-03 16:09:01+00:00,196.1598,15.19,14.32,47.84626,-54.09684
2020-08-03 16:19:01+00:00,190.9848,15.42,14.24,47.84626,-54.09684
2020-08-03 16:29:01+00:00,185.9598,15.76,14.24,47.84626,-54.09684
2020-08-03 16:39:01+00:00,185.2298,15.9,14.24,47.84626,-54.09684
2020-08-03 16:49:01+00:00,182.6681,15.99,14.24,47.84626,-54.09684
2020-08-03 16:59:01+00:00,178.4531,16.15,14.24,47.84626,-54.09684
2020-08-03 17:09:01+00:00,177.6448,16.56,14.24,47.84626,-54.09684
2020-08-03 17:19:01+00:00,176.5948,16.74,14.16,47.84626,-54.09684
2020-08-03 17:29:01+00:00,175.1398,16.6,14.16,47.84626,-54.09684
2020-08-03 17:39:01+00:00,174.7498,16.32,14.16,47.84626,-54.09684
2020-08-03 17:49:01+00:00,176.0214,16.6,14.16,47.84626,-54.09684
2020-08-03 17:59:01+00:00,177.5965,16.7,14.16,47.84626,-54.09684
2020-08-03 18:09:01+00:00,180.0248,16.68,14.16,47.84626,-54.09684
2020-08-03 18:19:01+00:00,186.3848,16.77,13.92,47.84626,-54.09684
2020-08-03 18:29:01+00:00,189.9315,16.79,13.92,47.84626,-54.09684
2020-08-03 18:39:01+00:00,190.9497,16.8,13.92,47.84626,-54.09684
2020-08-03 18:49:01+00:00,195.1448,17.23,13.92,47.84626,-54.09684
2020-08-03 18:59:01+00:00,201.0164,17.36,13.92,47.84626,-54.09684
2020-08-03 19:09:01+00:00,204.8264,17.43,13.92,47.84626,-54.09684
2020-08-03 19:19:01+00:00,207.5448,17.65,13.76,47.84626,-54.09684
2020-08-03 19:29:01+00:00,213.2581,17.78,13.76,47.84626,-54.09684
2020-08-03 19:39:01+00:00,218.9698,17.86,13.76,47.84626,-54.09684
2020-08-03 19:49:01+00:00,223.7131,17.9,13.76,47.84626,-54.09684
2020-08-03 19:59:01+00:00,228.7181,17.9,13.76,47.84626,-54.09684
2020-08-03 20:09:01+00:00,234.8698,17.8,13.76,47.84626,-54.09684
2020-08-03 20:19:01+00:00,240.7231,17.48,13.68,47.84626,-54.09684
2020-08-03 20:29:01+00:00,245.5598,17.2,13.68,47.84626,-54.09684
2020-08-03 20:39:01+00:00,250.9797,17.1,13.68,47.84626,-54.09684
2020-08-03 20:49:01+00:00,257.3398,17.1,13.68,47.84626,-54.09684
2020-08-03 20:59:01+00:00,264.3898,16.8,13.68,47.84626,-54.09684
2020-08-03 21:09:01+00:00,271.2747,16.79,13.68,47.84626,-54.09684
2020-08-03 21:19:01+00:00,279.3898,16.86,13.53,47.84626,-54.09684
2020-08-03 21:29:01+00:00,289.1564,16.84,13.53,47.84626,-54.09684
2020-08-03 21:39:01+00:00,299.278,16.87,13.53,47.84626,-54.09684
2020-08-03 21:49:01+00:00,308.1597,16.9,13.53,47.84626,-54.09684
2020-08-03 21:59:01+00:00,317.4446,16.89,13.53,47.84626,-54.09684
2020-08-03 22:09:01+00:00,326.4046,16.9,13.53,47.84626,-54.09684
2020-08-03 22:19:01+00:00,333.153,17.11,13.37,47.84626,-54.09684
2020-08-03 22:29:01+00:00,338.2147,17.3,13.37,47.84626,-54.09684
2020-08-03 22:39:01+00:00,343.7813,17.48,13.37,47.84626,-54.09684
2020-08-03 22:49:01+00:00,350.3947,17.6,13.37,47.84626,-54.09684
2020-08-03 22:59:01+00:00,355.2713,17.67,13.37,47.84626,-54.09684
2020-08-03 23:09:01+00:00,359.2795,17.7,13.37,47.84626,-54.09684
2020-08-03 23:19:01+00:00,362.6146,17.76,13.05,47.84626,-54.09684
2020-08-03 23:29:01+00:00,364.7546,17.8,13.05,47.84626,-54.09684
2020-08-03 23:39:01+00:00,366.8896,17.89,13.05,47.84626,-54.09684
2020-08-03 23:49:01+00:00,368.7979,17.94,13.05,47.84626,-54.09684
2020-08-03 23:59:01+00:00,369.5879,17.9,13.05,47.84626,-54.09684
